Regional Weather Roundup
Issued by NWS

Home | Current Version | Previous Version | Text Only | Print | Product List | Glossary On
Versions: 1 2 3 4 5 6 7 8 9 10 11 12 13 14 15 16 17 18 19 20 21 22 23 24 25 26 27 28 29 30 31 32 33 34 35 36 37 38 39 40 41 42 43 44 45 46 47 48 49 50
000
ASUS42 KTBW 020610
RWRFL
FLORIDA REGIONAL WEATHER ROUNDUP
NATIONAL WEATHER SERVICE TAMPA BAY RUSKIN FL
200 AM EDT SAT AUG 02 2014

NOTE: "FAIR" INDICATES FEW OR NO CLOUDS BELOW 12,000 FEET WITH NO
SIGNIFICANT WEATHER AND/OR OBSTRUCTIONS TO VISIBILITY.


FLZ001>010-012>015-112-114-115-020700-
PANHANDLE FLORIDA

CITY           SKY/WX    TMP DP  RH WIND       PRES   REMARKS
PENSACOLA      PTCLDY    74  69  85 CALM      29.99S
PENSACOLA NAS  PTCLDY    73  71  93 NW3       29.98F
CRESTVIEW      PTCLDY    73  70  90 CALM      30.00F
DUKE FIELD     FAIR      73  71  94 N2        29.99S
VALPARAISO     MOCLDY    75  69  79 NW2       29.98S
MARY ESTHER    PTCLDY    74  66  76 N5        29.97S
TRI COUNTY     FAIR      73  71  93 CALM      29.99S
PANAMA CITY    FAIR      73  68  84 NW3       29.96F
TYNDALL AFB    CLEAR     74  69  86 N3        29.97F
APALACHICOLA   CLEAR     71  68  90 CALM      29.96F

STATION/POSITION SKY/WX   TEMP    WIND        PRES    WAVE   SWELL
                          AIR SEA DIR/SP/G            HT/PER HT/PER
                          (F)     (DEG/KT/KT) (MB)    (FT/S) (FT/S)
30.1N   87.6W              82 83   10/  6/  8 1015.5F   0
29.2N   88.2W              82 84   70/  2/  2 1015.4F
28.8N   86.0W              83 86   CALM  /  2 1014.9F   1
PANAMA CITY BEAC           78 82  330/  5/  6 1014.8F
CAPE SAN BLAS    NOT AVBL
TOWER C                    81     320/  8/  9 1014.4F
28.5N   84.5W              82 85   70/  2/  4 1014.8F   1

$$
FLZ011-016>038-118-127-128-134-139-239-020700-
NORTH FLORIDA

CITY           SKY/WX    TMP DP  RH WIND       PRES   REMARKS
MARIANNA       CLEAR     76  74  93 NE6       29.97F
TALLAHASSEE    CLEAR     77  71  82 CALM      29.97F
PERRY          PTCLDY    73  70  88 CALM      29.98F
CROSS CITY       N/A     70  66  87 CALM      29.97F
GAINESVILLE    PTCLDY    72  69  90 CALM      29.99F
MAYPORT NAS    CLEAR     80  76  87 S6        29.98F
JACKSONVILLE   PTCLDY    77  75  93 SW3       29.97F
JAX NAS        PTCLDY    84  75  74 S10       29.99F
JAX CRAIG      CLEAR     80  75  84 S6        29.98F
JAX CECIL      PTCLDY    73  73 100 CALM      29.99S
FERNANDINA BEA FAIR      81  77  89 S6        29.97F
ST AUGUSTINE   MOCLDY    80  75  84 CALM      29.99F

STATION/POSITION SKY/WX   TEMP    WIND        PRES    WAVE   SWELL
                          AIR SEA DIR/SP/G            HT/PER HT/PER
                          (F)     (DEG/KT/KT) (MB)    (FT/S) (FT/S)
SHELL POINT                81     260/  5/  6   N/A
KEATON BEACH               75      60/  3/  3 1014.9F
CEDAR KEY                  81     290/  2/  3 1015.7F
FERNANDINA                 81 87  190/  5/  8 1014.8S
30.7N   81.3W                 85                N/A     4/ 4
MAYPORT                    81 85  200/  4/  5   N/A
31.4N   80.9W              81 85  190/ 16/ 19 1015.2F   3/ 5   2/ 7
ST AUGUSTINE               80     220/  4/  5 1015.9F

$$
FLZ040-043>046-052-053-057-058-063-144-020700-
INTERIOR CENTRAL FLORIDA

CITY           SKY/WX    TMP DP  RH WIND       PRES   REMARKS
OCALA          PTCLDY    75  64  69 NE3       29.99F
LEESBURG       PTCLDY    80  74  81 SW3       29.99F
SANFORD        PTCLDY    81  77  88 SE5       29.98F
ORLANDO EXEC   PTCLDY    80  75  84 E3        29.98F
ORLANDO INTL   CLOUDY    79  75  87 E3        29.97F
WINTER HAVEN   PTCLDY    78  73  84 SW5       29.98F
LAKELAND       PTCLDY    79  73  83 CALM      29.98F
BARTOW         FAIR      75  75 100 SE5       29.98F
OKEECHOBEE       N/A     75  73  94 MISG      29.97F

$$
FLZ041-047-054-059-064-141-147-020700-
EAST CENTRAL FLORIDA

CITY           SKY/WX    TMP DP  RH WIND       PRES   REMARKS
DAYTONA BEACH  PTCLDY    78  76  93 CALM      29.98F
DELAND         PTCLDY    77  73  88 S3        29.99F
JFK SPACE CTR  PTCLDY    79  79 100 W1        29.97F
CAPE CANAVERAL PTCLDY    81  77  88 SE8       29.96F
PATRICK AFB    PTCLDY    82  78  85 S8        29.97F
MELBOURNE      PTCLDY    81  76  84 S3        29.97F
VERO BEACH     MOCLDY    79  75  87 CALM      29.97F
FT PIERCE      MOCLDY    80  75  84 SE3       29.96F
STUART         PTCLDY    79  72  78 SE6       29.97F

STATION/POSITION SKY/WX   TEMP    WIND        PRES    WAVE   SWELL
                          AIR SEA DIR/SP/G            HT/PER HT/PER
                          (F)     (DEG/KT/KT) (MB)    (FT/S) (FT/S)
28.5N   80.2W              83 82  130/ 10/ 14 1015.5F
28.9N   78.5W              83 84  130/ 16/ 19 1015.6F   3/ 7   2/ 7
TRIDENT PIER               82 85  140/  5/  9 1014.7F
28.4N   80.5W                 83                N/A     2/ 3
27.6N   80.2W                 83                N/A     2/ 4

$$
FLZ050-056-061-142-242-148-248-149-249-151-251-155-255-
160-260-020700-
WEST CENTRAL FLORIDA

CITY           SKY/WX    TMP DP  RH WIND       PRES   REMARKS
CRYSTAL RIVER  FAIR      72  68  88 CALM      29.97F
INVERNESS      FAIR      73  68  83 CALM      29.98F
BROOKSVILLE    PTCLDY    75  71  87 CALM      29.99F
ZEPHYRHILLS    FAIR      73  72  94 CALM      29.98F
CLEARWATER     MOCLDY    82  71  69 NE6       29.97F
TAMPA INTL     CLOUDY    81  70  69 N5        29.98F
TAMPA EXEC     MOCLDY    77  73  88 CALM      29.98F
MACDILL AFB    PTCLDY    78  73  85 N2        29.97F
ST PETERSBURG  MOCLDY    84  73  69 NE7       29.95F
SARASOTA       MOCLDY    79  74  84 E3        29.94F
VENICE         FAIR      79  75  89 SE6       29.96F

STATION/POSITION SKY/WX   TEMP    WIND        PRES    WAVE   SWELL
                          AIR SEA DIR/SP/G            HT/PER HT/PER
                          (F)     (DEG/KT/KT) (MB)    (FT/S) (FT/S)
CEDAR KEY                  81     290/  2/  3 1015.7F
28.5N   84.5W              82 85   70/  2/  4 1014.8F   1
27.3N   84.3W                 87                N/A     0
CLEARWATER BEACH           83 89   70/  5/  6 1014.6F
MIDDLE TAMPA BAY           81     150/  5/  7 1015.0F
VENICE                     80 89  110/  5/  6 1013.8F

$$
FLZ066-069-070-075>078-162-262-165-265-020700-
SOUTHWEST FLORIDA AND KEYS

CITY           SKY/WX    TMP DP  RH WIND       PRES   REMARKS
PUNTA GORDA    CLOUDY    78  75  90 CALM      29.97F
FT MYERS       CLOUDY    76  75  97 CALM      29.95F
SOUTHWEST INTL CLOUDY    76  74  93 SE3       29.96F
NAPLES         MOCLDY    77  73  87 E7        29.96F
MARCO ISLAND   CLEAR     75  73  94 E6        29.96F
MARATHON       MOCLDY    84  74  71 CALM      29.95F
KEY WEST NAS   PTCLDY    84  75  74 E5        29.95F
KEY WEST INTL  MOCLDY    83  72  69 SE9G18    29.96F

STATION/POSITION SKY/WX   TEMP    WIND        PRES    WAVE   SWELL
                          AIR SEA DIR/SP/G            HT/PER HT/PER
                          (F)     (DEG/KT/KT) (MB)    (FT/S) (FT/S)
VENICE                     80 89  110/  5/  6 1013.8F
NAPLES                     77 93   90/  5/  8 1015.1F
DRY TORTUGAS               85     110/  4/  5 1014.1F
NW FL BAY                  85      60/  9/ 10 1015.2F
SAND KEY                   83      40/  9/ 11 1014.3F
SOMBRERO KEY               85     100/  9/ 10 1015.0F
LONG KEY                   86 91   90/  8/  9 1015.4F
MOLASSES REEF              84 87  100/  6/  6 1014.3F

$$
FLZ067-068-071>074-168-172>174-020700-
SOUTHEAST FLORIDA

CITY           SKY/WX    TMP DP  RH WIND       PRES   REMARKS
W PALM BEACH   PTCLDY    82  74  76 SE3       29.95F
FT LAUDER-EXEC CLEAR     79  76  90 CALM      29.95F
FT LAUDERDALE  PTCLDY    80  73  79 N3        29.95F
POMPANO BEACH  PTCLDY   N/A N/A N/A MISG      29.96F
PEMBROKE PINES CLEAR     80  76  87 CALM      29.97F
OPA LOCKA      CLEAR     80  74  81 N3        29.96F
MIAMI          PTCLDY    81  74  79 CALM      29.96F
WEST KENDALL   CLEAR     80  75  84 CALM      29.96F
HOMESTEAD      PTCLDY    78  75  90 CALM      29.96F

STATION/POSITION SKY/WX   TEMP    WIND        PRES    WAVE   SWELL
                          AIR SEA DIR/SP/G            HT/PER HT/PER
                          (F)     (DEG/KT/KT) (MB)    (FT/S) (FT/S)
PORT EVERGLADES            84     100/  2/  5 1014.3
VIRGINIA KEY               85 89   60/  3/  6   N/A
LAKE WORTH                 84 86  100/  6/  7 1014.4F
FOWEY ROCKS                85 87   90/  8/  9 1014.7F
SETTLEMENT POINT           83     110/  8/  9 1015.2F

$$



USA.gov is the U.S. government's official web portal to all federal, state and local government web resources and services.